Cloud_Cover
11 5 10 0 0 0 0 0 0 0 0 0 0 0 0 0 0 0 0 0 0 0 0 0 0 0 0 0 0 46 100 47 0 0 0 0 0 0 50 62 69 98 89 96 97
5 3 6 0 0 0 0 0 0 0 0 0 0 0 0 0 0 0 0 0 0 0 0 0 0 0 0 0 6 61 54 10 1 0 0 0 0 0 15 5 5 50 80 65 86
5 6 3 0 0 0 0 0 0 0 0 0 0 0 0 0 0 0 0 0 0 0 0 0 0 0 0 5 5 3 2 1 0 0 0 0 0 0 1 5 3 3 91 99 99
1 0 0 0 0 0 0 0 0 0 0 0 0 0 0 0 0 0 0 0 0 0 0 0 0 0 0 3 36 24 5 0 0 0 2 0 0 0 0 1 0 3 70 82 100
0 0 0 0 0 0 0 0 0 0 0 0 0 0 0 0 0 0 0 0 3 3 2 0 0 0 1 3 3 5 5 0 0 0 0 0 0 0 0 0 0 40 99 100 100
0 0 0 0 0 0 0 0 0 0 0 0 0 0 0 0 0 0 0 0 0 5 0 0 0 0 0 0 0 0 1 2 0 0 0 0 0 0 0 0 8 100 100 100 100
0 0 0 0 0 0 0 0 0 0 0 0 0 0 0 0 0 0 0 0 0 4 0 0 0 0 0 3 2 0 0 0 0 0 0 0 0 0 11 20 59 100 100 100 100
0 0 0 0 0 0 0 0 0 0 0 0 0 0 0 0 0 0 0 0 0 0 4 0 0 0 0 4 4 1 0 0 2 0 0 0 0 0 16 58 95 100 100 100 100
0 0 0 0 0 0 0 0 0 0 0 0 0 0 0 0 0 0 0 0 0 0 0 0 0 0 4 5 5 5 4 1 0 5 5 4 0 0 4 89 70 100 100 100 100
0 0 0 0 0 0 0 0 0 0 0 0 0 0 0 0 0 0 0 0 0 0 0 0 1 0 0 5 6 8 5 3 4 2 5 5 0 0 0 4 100 100 100 100 100
0 0 0 0 0 0 1 0 0 0 0 0 0 0 0 0 0 0 0 0 0 0 0 2 4 3 5 5 5 8 5 5 0 3 5 5 1 0 0 0 88 100 69 100 100
5 5 7 5 2 1 1 0 0 0 0 0 0 0 0 0 0 0 0 0 0 0 0 3 4 3 5 5 5 5 5 5 0 0 11 5 0 0 0 0 2 100 100 100 100
23 4 3 15 5 59 23 26 17 5 5 20 1 0 0 0 0 0 0 2 5 4 0 0 4 0 5 5 8 5 5 5 5 2 2 4 0 0 0 0 0 4 92 100 100
24 27 29 6 4 5 5 7 43 8 19 100 88 57 8 4 3 3 0 0 2 5 4 0 0 0 5 5 5 5 5 5 5 18 5 2 39 0 0 0 0 0 0 100 100
98 10 5 6 5 4 1 2 1 5 5 59 21 29 6 28 16 86 5 5 5 5 5 5 5 0 0 0 5 5 5 5 5 5 61 4 4 0 0 0 0 0 0 3 100
34 5 5 5 5 0 0 0 0 0 0 36 31 5 1 5 5 26 57 6 5 5 5 5 5 3 0 0 5 5 28 48 5 25 88 3 4 4 0 0 0 0 0 0 2
36 5 17 5 5 5 5 1 0 1 14 0 2 0 0 0 2 7 18 35 18 5 8 5 5 5 5 4 4 5 34 31 44 96 64 3 14 2 0 0 0 0 0 0 0
78 78 94 5 5 5 5 3 0 4 88 100 8 0 0 0 0 0 36 40 5 6 51 22 5 5 5 5 5 5 5 14 31 50 14 5 6 0 0 0 0 0 0 0 4
35 42 100 71 6 5 1 11 2 5 5 5 3 0 0 5 5 0 0 0 0 4 5 6 99 13 38 5 5 5 6 5 55 30 89 5 0 0 0 0 0 0 0 0 0
100 100 100 100 100 56 7 2 4 5 8 3 3 4 0 4 1 5 5 5 6 5 1 0 0 19 12 10 42 7 36 57 82 84 79 5 0 0 0 0 0 0 0 0 0
100 100 100 100 98 100 99 75 85 100 85 88 83 42 50 53 42 5 5 5 67 73 5 1 0 0 5 92 7 55 90 19 18 8 42 70 5 0 0 0 0 0 0 0 0
100 100 100 100 100 93 100 100 97 96 100 85 66 69 74 57 7 5 57 44 8 19 12 4 0 2 5 57 67 45 77 55 5 5 8 30 15 0 0 0 0 0 0 0 0
100 5 0 0 14 14 7 4 3 2 0 2 0 0 1 0 1 0 3 92 82 31 5 1 0 4 0 5 85 6 58 61 52 5 31 41 44 0 0 0 0 0 0 0 0
100 77 34 72 43 61 77 79 61 5 3 0 0 2 5 5 5 2 0 1 4 5 5 3 0 0 0 0 4 98 90 39 42 47 16 71 16 5 0 2 0 1 0 0 0
13 95 100 92 34 89 100 100 100 100 100 96 23 5 5 16 3 8 3 0 0 0 4 0 0 0 0 0 3 6 100 77 13 100 8 100 53 85 1 8 0 0 0 0 0
43 62 19 5 7 12 5 5 5 5 97 23 95 99 100 92 100 51 90 70 1 2 0 0 0 0 0 0 4 22 5 5 99 100 89 96 55 100 22 97 5 4 0 0 0
92 88 100 63 5 29 11 3 5 5 5 2 26 97 14 82 100 78 100 100 100 100 5 5 2 0 0 0 100 0 5 100 100 100 95 6 100 100 73 98 60 14 9 0 0